Weather History for Akron Canton, OH

Change the Weather History Date:

Saturday, November 17, 2012

  Actual Average Record
Temperature  
Mean Temperature 40 °F 41 °F  
Max Temperature 54 °F 49 °F 72 °F (1958)
Min Temperature 26 °F 34 °F 9 °F (1933)
Degree Days  
Heating Degree Days 25 24  
Month to date heating degree days 423 357  
Since 1 July heating degree days 958 912  
Cooling Degree Days 0 0  
Month to date cooling degree days 0 0  
Year to date cooling degree days 1046 652  
Moisture  
Dew Point 27 °F    
Average Humidity 65    
Maximum Humidity 92    
Minimum Humidity 38    
Precipitation  
Precipitation 0.00 in 0.12 in 1.60 in (1993)
Month to date precipitation 0.69 1.85  
Year to date precipitation 33.66 35.33  
Snow  
Snow 0.00 in 0.10 in - ()
Month to date snowfall T 1.2  
Since 1 July snowfall T 1.6  
Since 1 September snowfall T 1.6  
Snow Depth 0.00 in    
Sea Level Pressure  
Sea Level Pressure 30.57 in    
Wind  
Wind Speed 6 mph (ENE)    
Max Wind Speed 10 mph    
Max Gust Speed 13 mph    
Visibility 6 miles    
Events      
T = Trace of Precipitation, MM = Missing Value Source: NWS Daily Summary

Daily Weather History Graph

Daily Weather History Graph

Search for Another Location

Airport:

Trip Planner

Search our weather history database for the weather conditions in past years. The results will help you decide how hot, cold, wet, or windy it might be!

Date:

Astronomy

Nov. 17, 2012 Rise Set
Actual Time 7:15 AM EST 5:05 PM EST
Civil Twilight 6:46 AM EST 5:34 PM EST
Nautical Twilight 6:12 AM EST 6:08 PM EST
Astronomical Twilight 5:40 AM EST 6:40 PM EST
Moon 10:59 AM EST (11/17) 9:13 PM EST (11/17)
Length of Visible Light 10h 48m
Length of Day
9h 49m
Waxing Crescent, 20% of the Moon is Illuminated
Nov 17
Waxing Crescent
Nov 20
First Quarter
Nov 28
Full
Dec 6
Last Quarter
Dec 13
New

Hourly Weather History & Observations

Time (EST) Temp. Windchill Dew Point Humidity Pressure Visibility Wind Dir Wind Speed Gust Speed Precip Events Conditions
12:51 AM 30.0 °F 25.2 °F 26.1 °F 85% 30.53 in 3.0 mi NE 4.6 mph - N/A   Clear
1:51 AM 28.9 °F 23.9 °F 26.1 °F 89% 30.53 in 3.0 mi ENE 4.6 mph - N/A   Clear
2:51 AM 28.0 °F 22.8 °F 24.1 °F 85% 30.54 in 4.0 mi East 4.6 mph - N/A   Clear
3:51 AM 28.0 °F 20.8 °F 24.1 °F 85% 30.54 in 3.0 mi ENE 6.9 mph - N/A   Clear
4:51 AM 28.0 °F 20.8 °F 24.1 °F 85% 30.56 in 3.0 mi NE 6.9 mph - N/A   Clear
5:51 AM 27.0 °F 19.5 °F 23.0 °F 85% 30.57 in 3.0 mi NE 6.9 mph - N/A   Clear
6:51 AM 26.1 °F 20.5 °F 23.0 °F 88% 30.59 in 3.0 mi NE 4.6 mph - N/A   Clear
7:51 AM 34.3 °F 29.2 °F 28.0 °F 78% 30.60 in 3.0 mi East 5.8 mph - N/A   Haze
8:51 AM 38.3 °F 34.8 °F 23.5 °F 55% 30.61 in 3.0 mi East 4.6 mph - N/A   Haze
9:51 AM 44.8 °F 41.6 °F 22.3 °F 41% 30.62 in 6.0 mi East 5.8 mph - N/A   Haze
10:51 AM 46.4 °F 43.5 °F 32.0 °F 57% 30.60 in 7.0 mi SE 5.8 mph - N/A   Scattered Clouds
11:51 AM 50.0 °F - 32.0 °F 50% 30.61 in 7.0 mi East 4.6 mph - N/A   Scattered Clouds
12:51 PM 53.1 °F - 30.0 °F 41% 30.59 in 7.0 mi NE 6.9 mph - N/A   Scattered Clouds
1:51 PM 53.1 °F - 28.0 °F 38% 30.58 in 8.0 mi East 9.2 mph - N/A   Scattered Clouds
2:51 PM 53.1 °F - 28.9 °F 40% 30.57 in 8.0 mi East 5.8 mph - N/A   Scattered Clouds
3:51 PM 53.1 °F - 30.0 °F 41% 30.56 in 8.0 mi East 6.9 mph - N/A   Scattered Clouds
4:51 PM 48.0 °F - 28.9 °F 48% 30.57 in 7.0 mi East 5.8 mph - N/A   Partly Cloudy
5:51 PM 45.0 °F 41.8 °F 28.0 °F 52% 30.58 in 8.0 mi ENE 5.8 mph - N/A   Partly Cloudy
6:51 PM 42.8 °F 39.3 °F 28.4 °F 57% 30.54 in 8.0 mi NE 5.8 mph - N/A   Partly Cloudy
7:51 PM 42.1 °F 38.4 °F 28.0 °F 58% 30.57 in 8.0 mi ENE 5.8 mph - N/A   Clear
8:51 PM 41.0 °F 37.1 °F 28.0 °F 60% 30.57 in 8.0 mi ENE 5.8 mph - N/A   Clear
9:51 PM 39.9 °F 34.5 °F 28.0 °F 63% 30.56 in 7.0 mi ENE 8.1 mph - N/A   Clear
10:51 PM 37.9 °F 32.1 °F 28.0 °F 68% 30.55 in 7.0 mi ENE 8.1 mph - N/A   Clear
11:51 PM 37.9 °F 32.1 °F 28.0 °F 68% 30.53 in 7.0 mi ENE 8.1 mph - N/A   Partly Cloudy